Roseburg, OR

10:39 PM PST on February 20, 2017 (GMT -0800)
Roseburg Regional

Weather History for KRBG - March, 2014

Change the Weather History Date:

Saturday, March 8, 2014

  Actual Average Record
Temperature  
Mean Temperature 54 °F 48 °F  
Max Temperature 65 °F 57 °F 79 °F (1953)
Min Temperature 42 °F 39 °F 28 °F (1955)
Degree Days  
Heating Degree Days 11 17  
Month to date heating degree days 77 141  
Since 1 July heating degree days 3004 3010  
Cooling Degree Days 0 0  
Month to date cooling degree days 0 0  
Year to date cooling degree days 0 0  
Growing Degree Days 3 (Base 50)    
Moisture  
Dew Point 43 °F    
Average Humidity 65    
Maximum Humidity 89    
Minimum Humidity 40    
Precipitation  
Precipitation 0.13 in 0.10 in 0.95 in (1960)
Month to date precipitation 1.22 0.79  
Year to date precipitation 8.67 9.83  
Sea Level Pressure  
Sea Level Pressure 30.06 in    
Wind  
Wind Speed 3 mph (South)    
Max Wind Speed 12 mph    
Max Gust Speed 18 mph    
Visibility 10 miles    
Events Rain    
T = Trace of Precipitation, MM = Missing Value Source: NWS Daily Summary

Daily Weather History Graph

Daily Weather History Graph

Search for Another Location

Airport or City:

Trip Planner

Search our weather history database for the weather conditions in past years. The results will help you decide how hot, cold, wet, or windy it might be!

Date:

Astronomy

Mar. 08, 2014 Rise Set
Actual Time 6:37 AM PST 6:11 PM PST
Civil Twilight 6:09 AM PST 6:39 PM PST
Nautical Twilight 5:36 AM PST 7:12 PM PST
Astronomical Twilight 5:03 AM PST 7:46 PM PST
Moon 11:13 AM PST (3/8) 1:24 AM PST (3/8)
Length of Visible Light 12h 30m
Length of Day
11h 33m
First Quarter, 53% of the Moon is Illuminated
Mar 8
First Quarter
Mar 16
Full
Mar 23
Last Quarter
Mar 30
New
Apr 7
First Quarter

Hourly Weather History & Observations

Time (PST) Temp. Windchill Dew Point Humidity Pressure Visibility Wind Dir Wind Speed Gust Speed Precip Events Conditions
12:53 AM 45.0 °F 43.5 °F 41.0 °F 86% 30.16 in 10.0 mi NNE 3.5 mph - N/A   Clear
1:53 AM 44.1 °F - 39.9 °F 85% 30.13 in 10.0 mi Calm Calm - N/A   Clear
2:53 AM 43.0 °F - 39.9 °F 89% 30.12 in 10.0 mi Calm Calm - N/A   Clear
3:12 AM 43.0 °F - 39.9 °F 89% 30.10 in 10.0 mi Calm Calm - N/A   Scattered Clouds
3:53 AM 42.1 °F - 39.0 °F 89% 30.09 in 10.0 mi Calm Calm - N/A   Clear
4:53 AM 42.1 °F - 39.0 °F 89% 30.10 in 8.0 mi Calm Calm - N/A   Clear
5:53 AM 43.0 °F - 39.9 °F 89% 30.10 in 10.0 mi Calm Calm - N/A   Clear
6:53 AM 44.1 °F - 39.9 °F 85% 30.11 in 10.0 mi Calm Calm - N/A   Mostly Cloudy
7:53 AM 45.0 °F - 41.0 °F 86% 30.11 in 10.0 mi Calm Calm - N/A   Overcast
8:53 AM 46.9 °F - 42.1 °F 83% 30.12 in 10.0 mi Calm Calm - N/A   Overcast
9:53 AM 51.1 °F - 43.0 °F 74% 30.10 in 10.0 mi SSE 4.6 mph - N/A   Overcast
10:53 AM 55.0 °F - 43.0 °F 64% 30.08 in 10.0 mi SE 3.5 mph - N/A   Overcast
11:53 AM 60.1 °F - 43.0 °F 53% 30.05 in 10.0 mi NNW 3.5 mph - N/A   Mostly Cloudy
12:53 PM 62.1 °F - 44.1 °F 52% 30.04 in 10.0 mi Calm Calm - 0.00 in Rain Light Rain
1:53 PM 63.0 °F - 45.0 °F 52% 30.01 in 10.0 mi Calm Calm - 0.00 in Rain Light Rain
2:53 PM 64.0 °F - 44.1 °F 48% 30.01 in 10.0 mi Calm Calm - 0.00 in   Overcast
3:53 PM 64.0 °F - 42.1 °F 45% 29.98 in 10.0 mi SSW 3.5 mph - 0.00 in   Overcast
4:53 PM 64.9 °F - 39.9 °F 40% 29.99 in 10.0 mi South 5.8 mph - 0.00 in   Overcast
5:53 PM 64.0 °F - 42.1 °F 45% 29.98 in 10.0 mi SSE 5.8 mph - N/A   Overcast
6:53 PM 63.0 °F - 43.0 °F 48% 29.99 in 10.0 mi South 6.9 mph - 0.00 in   Overcast
7:53 PM 63.0 °F - 44.1 °F 50% 29.99 in 10.0 mi Variable 6.9 mph - 0.00 in   Overcast
8:53 PM 63.0 °F - 46.9 °F 56% 30.01 in 10.0 mi South 9.2 mph 17.3 mph N/A   Overcast
9:53 PM 62.1 °F - 48.9 °F 62% 30.01 in 10.0 mi South 6.9 mph - 0.00 in Rain Light Rain
10:53 PM 59.0 °F - 52.0 °F 78% 30.01 in 5.0 mi South 3.5 mph - 0.04 in Rain Light Rain
11:53 PM 57.0 °F - 54.0 °F 89% 30.02 in 5.0 mi South 3.5 mph - 0.09 in Rain Light Rain